Zurück zum Katalog

GONETS D1 2

AktivKommunikationPO
NORAD 23788·PAYLOAD·🇷🇺 Russia

Gestartet Feb 19, 1996 von Plesetsk Cosmodrome

Loading…

Nächste Überflüge (nächste 24 Stunden)

TLE

AktuellSource: Space-Track

Epoche: Sep 14, 2026, 08:40 UTC

1 23788U 96009B   26257.36160393 -.00000005  00000-0 -86586-4 0  9999
2 23788  82.5653 247.4255 0006069 219.4075 140.6576 12.63218382409353

Verfolge GONETS D1 2 in Echtzeit mit AllMySat

Download on the App Store